Showing default

GALS 1, 22963

Orbit data source: Space-Track

GALS 1, 22963 is a Commonwealth of Independent States-origin payload satellite in GEO that was launched on Thu, 20 Jan 1994 UTC via a PROTON-K/DM-2M launch vehicle from the Tyuratam Missile And Space Complex (TTMTR). Payload-class satellites include a variety of spacecraft equipped with specific instruments for various scientific and technological missions. These include communications satellites like Starlink; space stations such as the ISS; scientific satellites like the Hubble; Earth observation satellites from companies like Planet Labs, Umbra, and HawkEye 360; GPS; miniature CubeSats for education and research; and military/defense satellites.

Not visible in the next 10 days
Identifier
22963, 1994-002A
Orbit
GEO
Country
Flag of CISCIS
Related business
Manufacturer
NPO PM
Mission
Non-operational Defense Communications
Bus & Motor
GALS, Unknown motor
Mass
2,600 kg wet, ~2,400 kg dry
Launch date (UTC)
1994-01-20 (32 years ago)
Launch vehicle
PROTON-K/DM-2M
Launch site
Tyuratam Missile And Space Complex (TTMTR)
Object type
Payload
Rocket body
Debris
Shape & HBR
Cyl + 2 Pan, 5.0 m
Radar Cross Section
34.346 m², Large (>1 m²)

Expand to show TLE details & history
Last TLE update: 14 hours ago

TLE from 14 hours ago
0 GALS 1
1 22963U 94002A   26034.99367701  .00000119  00000-0  00000-0 0  9995
2 22963  14.5446 354.8675 0011612 241.0734 289.5920  1.00285890117375
Epoch: 2026-02-03T23:50Z
TLE epoch observation values (Epoch: 2026-02-03T23:50:53.693Z)
Latitude
2.37122°
Longitude
33.84214°
Altitude
35,765.7 km
Speed
3.076 km/s
True Right ascension
11h 02m 55s
True Declination
2° 22' 08"
Sunlit
Object was in daylight at epoch
Visualization orbit readout
Latitude
Unknown
Longitude
Unknown
Altitude
Unknown
Speed
Unknown
Apparent Right ascension
Unknown
Apparent Declination
Unknown
Sunlit
N/A
Visualization observer readout
Local Sidereal Time
15:37:11
Azimuth
Unknown
Elevation
Unknown
Doppler factor
Unknown
Orbital elements
Apogee altitude
35,832.571 km
Perigee altitude
35,734.655 km
Semi-major axis
42,161.75 km
Eccentricity
0.00116
Inclination
14.5446°
RAAN
354.8675°
Arg. of periapsis
241.0734°
True anomaly
289.46658°
Mean anomaly
289.592°
Eccentric anomaly
289.5293°
Mean motion
0.25071 °/min
Orbital period
1,435.94 mins
BSTAR
0
Loading maneuver chart data...
Computing Atmospheric mass density...
Loading historical data...
Loading historical data...
Loading historical data...
Loading historical data...
Loading historical data...
Loading historical data...
Loading historical data...

Documentation

Showing up to 5 results
|